Regional Weather Roundup
Issued by NWS Grand Forks, ND

Home | Current Version | Previous Version | Graphics & Text | Print | Product List | Glossary On
Versions: 1 2 3 4 5 6 7 8 9 10 11 12 13 14 15 16 17 18 19 20 21 22 23 24 25 26 27 28 29 30 31 32 33 34 35 36 37 38 39 40 41 42 43 44 45 46 47 48 49 50
000
ASUS43 KFGF 280010
RWRFGF
PRAIRIE TO PINES  WEATHER ROUNDUP
NATIONAL WEATHER SERVICE EASTERN NORTH DAKOTA/GRAND FORKS ND
700 PM CDT SUN JUL 27 2014

 **SATELLITE DATA USED TO AUGMENT SKY COVER AT AUTOMATED STATIONS**
 *****  WEATHER ACROSS EASTERN NORTH DAKOTA  *****

CITY           SKY/WX    TMP DP  RH WIND       PRES   REMARKS
GRAND FORKS    CLOUDY    68  57  68 N9        30.17S
6HR MIN TEMP:  65; 6HR MAX TEMP:  69;

GRAND FRKS AFB CLOUDY    67  58  72 N13       30.19S
GRAND FRKS NWS   N/A     66 N/A N/A MISG        N/A
DEVILS LAKE    CLOUDY    64  52  63 N10       30.22S
6HR MIN TEMP:  63; 6HR MAX TEMP:  64;

FARGO          CLOUDY    67  56  67 N14       30.17R
WAHPETON ARPT  CLOUDY    64  54  68 N14       30.17R
$$

 ***** WEATHER ACROSS CENTRAL AND WESTERN NORTH DAKOTA  *****

CITY           SKY/WX    TMP DP  RH WIND       PRES   REMARKS
BISMARCK       PTSUNNY   68  51  54 N10       30.27S
6HR MIN TEMP:  65; 6HR MAX TEMP:  71;

MINOT          PTSUNNY   68  51  54 W9        30.27S
6HR MIN TEMP:  63; 6HR MAX TEMP:  69;

JAMESTOWN      CLOUDY    66  53  63 N13       30.22F
6HR MIN TEMP:  63; 6HR MAX TEMP:  67;

MINOT AFB      MOSUNNY   67  51  57 N7        30.26F
GARRISON         N/A     68  51  54 N12       30.28S
WILLISTON      SUNNY     74  51  44 E13       30.28F
6HR MIN TEMP:  67; 6HR MAX TEMP:  75;

DICKINSON      MOSUNNY   71  51  49 NE9       30.28F
6HR MIN TEMP:  65; 6HR MAX TEMP:  73;

HETTINGER      SUNNY     72  53  51 N13       30.30R
6HR MIN TEMP:  68; 6HR MAX TEMP:  73;

$$

 *****  OTHER AIRPORT OBSERVATIONS IN OUR AREA  *****

CITY           SKY/WX    TMP DP  RH WIND       PRES   REMARKS
WALHALLA         N/A     68  54  60 N10         N/A
GRAFTON AIRPOR CLOUDY    66  55  68 N12       30.18F
VALLEY CITY AR CLOUDY    64  57  77 NW12      30.21S
CANDO          CLOUDY    63  54  72 N9        30.25S
CAVALIER APRT  CLOUDY    70  52  52 N10       30.20R
GWINNER        CLOUDY    66  55  68 N8        30.21S
SHEYENNE NWR     N/A     67  52  57 N10       29.95S
ROLLA          CLOUDY    64  50  59 N8        30.27S
 ***** THE ABOVE OBSERVATIONS ARE NON NWS ARE NOT QUALITY
       CONTROLLED AND MAY MIS-REPORT RAIN FOR SNOW...
$$

  *****  WEATHER ACROSS NORTHERN MINNESOTA  *****

CITY           SKY/WX    TMP DP  RH WIND       PRES   REMARKS
FLAG ISLAND    MOSUNNY   70  52  52 N12       30.13R
WARROAD        PTSUNNY   68  55  64 NW6       30.15S
ROSEAU         PTSUNNY   68  55  64 NW9       30.15F
HALLOCK        SUNNY     68  55  64 N10       30.18S
THF RVR FALLS  CLOUDY    64  57  77 NW8       30.17S
6HR MIN TEMP:  63; 6HR MAX TEMP:  66;

BAUDETTE       PTSUNNY   67  53  61 NW8       30.14R
6HR MIN TEMP:  64; 6HR MAX TEMP:  72;

WASKISH        CLOUDY    66  55  68 NW7       30.13S
CROOKSTON      CLOUDY    64  57  77 N8        30.18S
$$
  *****  WEATHER ACROSS CENTRAL AND WEST MINNESOTA  *****

CITY           SKY/WX    TMP DP  RH WIND       PRES   REMARKS
FOSSTON        CLOUDY    63  57  82 N9        30.16S
BEMIDJI        CLOUDY    64  56  75 N7        30.14R
PARK RAPIDS    CLOUDY    67  56  67 N13       30.12R
6HR MIN TEMP:  64; 6HR MAX TEMP:  72; 6HR PCP:  0.07;

ELBOW LAKE     CLOUDY    65  58  77 NW16G22   30.14R
WADENA         PTSUNNY   63  59  88 NW9       30.12R
DETROIT LAKES  PTSUNNY   64  57  77 N15       30.16R
MOORHEAD       CLOUDY    66  61  82 N9        30.17S
FERGUS FALLS   CLOUDY    64  55  72 N15       30.15S
MORRIS MN      PTSUNNY   66  57  72 NW16G22   30.13S
STAPLES        CLOUDY    64  61  88 N7        30.10R
$$
  *****  WEATHER ELSEWHERE ACROSS MINNESOTA  *****

CITY           SKY/WX    TMP DP  RH WIND       PRES   REMARKS
DULUTH         PTSUNNY   61  57  87 W5        30.07R
6HR MIN TEMP:  58; 6HR MAX TEMP:  61; 6HR PCP:  0.04;

INTRNTL FALLS  PTSUNNY   70  51  51 N9        30.10R
6HR MIN TEMP:  64; 6HR MAX TEMP:  71;

ELY            MOSUNNY   66  50  55 N3        30.07R
CLOQUET        CLOUDY    59  55  88 CALM      30.08R
WHEATON        NOT AVBL
BRAINERD       CLOUDY    66  56  70 N10       30.09R
6HR MIN TEMP:  66; 6HR MAX TEMP:  74; 6HR PCP: TRACE;

HIBBING        CLOUDY    67  53  61 N8        30.08S
6HR MIN TEMP:  64; 6HR MAX TEMP:  69;

ALEXANDRIA     CLOUDY    68  58  70 N15       30.13R
6HR MIN TEMP:  68; 6HR MAX TEMP:  72;

SAINT CLOUD    SUNNY     72  58  61 NE10G18   30.05R
6HR MIN TEMP:  70; 6HR MAX TEMP:  79;

MINNEAPOLIS    PTSUNNY   71  58  63 N20G26    30.01R
6HR MIN TEMP:  71; 6HR MAX TEMP:  78; 6HR PCP:  0.03;

$$

  *****  WEATHER ACROSS SOUTH DAKOTA  *****

CITY           SKY/WX    TMP DP  RH WIND       PRES   REMARKS
SIOUX FALLS    MOSUNNY   68  55  63 N14G25    30.16S
6HR MIN TEMP:  67; 6HR MAX TEMP:  74;

BROOKINGS      NOT AVBL
WATERTOWN      CLOUDY    64  56  75 N17G24    30.18S
6HR MIN TEMP:  62; 6HR MAX TEMP:  66;

HURON          MOSUNNY   69  54  58 N20G26    30.19S
6HR MIN TEMP:  69; 6HR MAX TEMP:  72;

SISSETON         N/A     68  57  68 N17G23    30.16S
ABERDEEN       CLOUDY    66  55  67 N14       30.21S
6HR MIN TEMP:  64; 6HR MAX TEMP:  68;

MITCHELL       PTSUNNY   71  56  58 N15       30.19S
PIERRE         SUNNY     76  53  44 N13       30.21F
6HR MIN TEMP:  74; 6HR MAX TEMP:  79;

MOBRIDGE       MOSUNNY   72  54  53 N10       30.23S
RAPID CITY     SUNNY     80  47  31 NE9       30.26F
6HR MIN TEMP:  76; 6HR MAX TEMP:  82;

$$

  *****  SOME WEATHER IN NEARBY STATES *****

CITY           SKY/WX    TMP DP  RH WIND       PRES   REMARKS
GLASGOW MT     SUNNY     83  44  25 NW12      30.22F
6HR MIN TEMP:  74; 6HR MAX TEMP:  85;

GREAT FALLS MT SUNNY     89  34  14 NE10      30.20F
6HR MIN TEMP:  78; 6HR MAX TEMP:  89;

CHEYENNE WY    MOSUNNY   76  51  41 S12       30.38S
6HR MIN TEMP:  70; 6HR MAX TEMP:  79;

SCOTTSBLUFF NE SUNNY     85  52  32 MISG      30.26F
6HR MIN TEMP:  78; 6HR MAX TEMP:  87;

OMAHA NE       MOSUNNY   79  56  45 N17       30.10S
6HR MIN TEMP:  79; 6HR MAX TEMP:  84;

DES MOINES IA  MOSUNNY   75  55  49 N17G33    30.04R
6HR MIN TEMP:  74; 6HR MAX TEMP:  80;

DAVENPORT IA   MOSUNNY   73  59  61 NW15G22   29.92R
6HR MIN TEMP:  72; 6HR MAX TEMP:  77;

CHICAGO IL     MOSUNNY   75  54  47 NW15G24   29.80R
6HR MIN TEMP:  75; 6HR MAX TEMP:  87;

EAU CLAIRE WI  PTSUNNY   68  56  65 N16G23    29.98R
6HR MIN TEMP:  68; 6HR MAX TEMP:  77; 6HR PCP: TRACE;

LA CROSSE WI   MOSUNNY   76  60  57 NW15      29.91R
6HR MIN TEMP:  70; 6HR MAX TEMP:  79; 6HR PCP: TRACE;

$$

  *****  SOME NATIONAL WEATHER *****

CITY           SKY/WX    TMP DP  RH WIND       PRES   REMARKS
LA GUARDIA NY  MOCLDY    85  65  51 S7        29.67R
6HR MIN TEMP:  83; 6HR MAX TEMP:  88;

RALEIGH NC     CLOUDY    81  70  69 SW6       29.81R
6HR MIN TEMP:  80; 6HR MAX TEMP:  87;

ATLANTA GA     MOCLDY    88  71  57 SW8       29.96R HX  94
6HR MIN TEMP:  87; 6HR MAX TEMP:  92;

NEW ORLEANS LA PTSUNNY   87  74  64 SW14      30.02S HX  95
6HR MIN TEMP:  87; 6HR MAX TEMP:  94;

OKLAHOMA CITY  PTSUNNY   90  59  35 NE22G28   30.04F
6HR MIN TEMP:  90; 6HR MAX TEMP:  96;

ALBUQUERQUE NM PTSUNNY   78  50  37 N20G26    30.21S
6HR MIN TEMP:  77; 6HR MAX TEMP:  93; 6HR PCP:  0.02;

SALT LAKE CITY MOSUNNY   98  35  11 VRB5      30.06F HX  93
6HR MIN TEMP:  90; 6HR MAX TEMP:  99;

LOS ANGELES CA PTSUNNY   73  64  73 W12       29.95F
6HR MIN TEMP:  70; 6HR MAX TEMP:  76; 6HR PCP:  0.14;

BOISE ID       SUNNY     98  36  11 NW7       30.01F HX  93



USA.gov is the U.S. government's official web portal to all federal, state and local government web resources and services.